Wind_Speed
11 10 12 13 15 16 17 15 16 18 19 18 18 22 28 24 16 10 7 7 8 9 8 8 8 8 8 7 8 9 8 9 9 8 8 9 10 11 11 11 11 10 11
8 13 15 15 17 19 17 16 17 19 21 23 22 25 31 26 19 14 10 9 12 11 10 9 9 10 9 9 8 8 8 8 8 7 6 6 7 8 9 9 9 8 9
16 18 15 14 15 20 20 20 22 21 22 26 27 29 30 22 17 16 14 11 8 5 7 9 9 9 10 10 9 9 7 8 8 7 7 6 6 6 6 7 6 6 7
21 19 19 21 22 23 21 22 22 23 30 38 23 28 26 23 24 18 11 8 7 7 9 10 10 10 9 9 9 10 8 7 7 7 6 5 5 4 4 4 5 5 5
18 20 22 20 22 24 23 23 23 24 19 31 35 28 27 26 22 15 11 11 9 9 10 10 10 10 10 10 10 10 9 8 8 8 7 7 5 5 5 4 2 2 3
20 19 18 15 16 13 20 3 31 30 26 27 26 25 22 21 16 12 12 11 10 10 10 11 11 11 11 11 10 10 10 9 8 7 7 9 10 11 9 8 8 8 7
15 15 11 14 21 18 17 15 10 46 28 29 26 23 20 16 14 10 12 12 12 11 11 11 11 10 11 10 10 9 9 8 8 8 7 7 8 8 8 8 10 12 12
13 12 8 10 12 14 18 18 8 15 23 22 22 16 16 16 7 10 12 12 11 11 11 10 10 9 9 9 8 8 8 8 8 7 8 8 8 9 9 10 9 9 12
12 10 7 10 10 17 14 8 10 23 21 20 10 7 12 10 12 13 12 11 11 11 10 9 10 10 9 9 8 8 8 9 9 9 9 9 9 9 10 10 10 11 12
12 12 14 11 12 13 15 14 8 2 7 13 7 11 11 11 12 11 12 12 12 11 11 11 11 11 10 10 10 10 11 10 10 11 11 11 10 11 11 12 12 12 13
12 12 14 19 15 21 14 14 11 8 12 12 9 9 11 11 11 12 12 12 12 11 12 13 13 12 11 11 11 11 11 11 12 12 12 12 13 13 13 15 14 14 15
13 13 15 14 17 17 19 16 15 14 9 10 9 8 9 10 11 11 12 12 13 13 14 15 14 13 12 13 13 12 12 12 13 13 12 13 14 14 15 14 14 15 16
15 16 17 16 16 15 12 11 14 14 14 12 10 10 10 10 11 11 13 14 14 14 15 15 15 13 14 14 14 13 13 14 14 14 14 14 14 14 13 13 14 15 16
17 18 20 23 23 22 20 20 20 19 18 16 15 15 13 12 12 14 14 15 15 15 16 16 15 15 15 15 15 14 14 14 15 15 15 14 13 13 13 14 14 15 16
21 21 22 26 28 29 27 24 23 23 22 21 20 19 18 17 16 17 16 17 17 17 17 17 16 17 17 17 16 15 15 15 15 16 16 15 15 15 15 14 16 17 17
23 23 24 25 30 30 28 26 25 26 27 25 23 23 22 20 20 19 19 19 18 18 18 18 18 19 19 19 17 17 15 15 16 16 17 16 16 17 17 17 17 18 19
25 26 26 26 27 31 31 32 30 28 28 29 27 26 25 24 23 22 19 19 19 20 20 20 20 20 20 20 20 18 17 17 17 17 17 17 18 18 18 19 20 20 21
29 29 28 29 29 30 31 32 33 32 30 31 30 28 27 27 26 24 22 22 21 21 21 21 21 21 21 21 21 20 19 18 19 19 19 19 19 20 20 21 22 22 23
28 30 31 32 32 32 32 32 34 33 32 33 32 31 31 29 28 26 25 24 24 23 23 22 22 22 22 23 22 22 22 21 21 21 21 21 21 22 22 23 23 24 25
24 28 32 34 35 35 35 35 35 35 34 34 33 33 34 32 29 27 27 26 25 24 24 24 24 24 25 25 25 25 24 24 24 24 23 23 23 24 25 25 25 26 27
31 31 32 33 35 37 38 37 36 36 35 34 34 34 34 33 33 30 29 27 26 25 25 25 26 27 27 27 27 26 26 26 26 26 26 25 25 26 27 27 28 28 29
39 37 37 35 35 36 37 38 38 37 37 36 36 35 35 34 33 33 30 28 29 29 29 28 27 27 29 29 29 27 28 28 28 29 28 27 27 28 29 30 31 31 32
37 41 40 40 39 38 37 40 40 40 40 40 39 38 36 36 33 34 31 30 30 30 29 29 29 29 29 29 29 29 30 31 30 29 29 29 29 29 30 32 34 35 35
33 35 42 45 43 42 42 42 38 39 40 40 39 39 38 37 36 34 33 32 31 32 32 31 30 30 30 31 31 32 32 32 32 33 31 31 31 31 34 35 36 36 37
20 24 30 37 46 48 45 44 42 43 42 41 40 39 40 39 36 36 34 32 34 33 34 34 33 32 32 33 33 34 34 34 34 34 34 33 33 34 36 37 37 38 38
15 20 26 30 35 42 48 48 46 45 43 41 42 42 41 39 38 37 35 35 36 36 34 34 34 34 34 35 35 35 35 35 34 35 35 35 35 34 35 37 38 39 40
Wind_Direction
275 302 294 269 260 250 248 254 261 240 239 234 230 215 204 193 179 173 196 189 164 168 162 167 185 188 157 160 153 151 144 132 127 122 120 126 122 119 119 121 123 121 123
277 298 298 276 253 252 251 264 262 250 241 241 233 218 209 200 177 167 191 168 142 155 164 162 168 178 178 180 164 149 160 149 143 135 133 125 119 125 126 126 126 123 123
299 302 289 265 257 254 254 257 250 247 246 234 220 228 212 168 148 167 168 171 177 169 162 170 162 162 176 183 182 176 176 172 158 156 158 146 138 137 128 128 140 138 135
285 294 282 272 258 249 248 244 232 235 252 231 216 192 170 169 163 174 190 207 212 192 186 173 167 167 163 158 173 186 190 192 192 190 200 188 165 146 147 150 151 162 165
287 292 294 275 252 236 244 238 223 218 193 190 197 173 170 158 158 170 192 214 202 185 178 175 178 175 170 166 164 164 178 187 198 209 207 208 200 202 200 191 190 199 209
290 294 297 259 257 229 239 178 205 209 191 192 152 154 153 172 182 191 198 196 190 183 174 175 172 169 172 175 177 179 181 181 178 182 192 205 207 219 223 227 225 223 220
283 303 284 249 256 242 232 221 99 188 155 156 160 154 163 166 169 184 191 186 179 177 170 170 168 167 169 170 170 177 183 193 193 195 196 200 197 212 221 232 239 246 245
283 300 279 240 238 244 212 244 201 151 134 135 141 146 153 156 176 199 189 181 176 180 181 181 180 184 184 180 183 187 191 197 200 197 202 205 210 218 225 230 233 240 245
275 277 271 254 229 194 169 213 169 165 164 137 134 174 171 187 197 198 191 188 191 198 199 197 204 205 207 206 210 212 217 219 224 227 226 225 227 233 234 235 236 241 244
261 266 250 247 188 177 155 160 155 122 145 130 193 217 194 190 193 198 199 203 204 208 216 222 225 228 227 230 224 227 228 230 233 240 243 243 244 247 255 260 256 254 256
246 250 243 245 229 198 192 179 164 191 193 195 201 202 199 195 196 203 208 214 222 225 230 231 233 235 238 238 235 231 235 235 238 240 243 250 250 248 248 253 258 262 266
234 235 237 238 218 219 213 194 191 222 224 198 207 217 218 210 207 213 223 225 226 233 237 239 239 236 235 236 236 236 241 245 249 251 253 254 257 257 255 257 261 263 264
229 228 228 225 218 224 229 198 235 229 229 240 233 224 228 234 230 228 233 232 236 240 242 246 244 239 237 237 238 238 242 248 251 250 250 253 254 257 261 261 261 261 263
241 236 225 226 223 217 233 244 241 237 239 238 241 240 240 240 244 244 238 241 242 245 248 246 245 242 241 240 238 242 249 251 251 252 252 255 257 259 259 259 258 262 268
241 233 234 227 229 235 240 241 238 238 237 238 240 243 243 244 246 246 245 242 243 246 249 250 247 245 244 242 244 249 250 252 252 254 254 256 256 257 259 261 265 264 266
247 240 235 234 231 233 235 235 237 235 236 236 238 244 247 247 250 251 247 246 246 248 250 251 249 247 244 245 249 251 254 254 253 253 256 257 261 265 266 266 266 269 271
240 239 237 233 235 236 235 233 234 237 237 237 238 237 243 247 247 251 251 247 249 249 249 248 247 247 248 248 249 253 256 257 259 261 262 262 263 266 269 270 271 273 274
238 239 238 239 234 234 238 238 236 236 238 237 237 236 238 242 247 246 249 249 250 253 253 253 250 249 248 249 251 254 257 260 262 262 263 265 267 267 266 268 271 273 274
238 238 239 238 237 237 236 238 240 241 243 240 238 240 242 244 245 246 247 246 246 248 251 252 254 252 252 252 253 255 257 259 261 265 266 267 268 270 270 270 271 273 274
237 241 242 241 239 238 238 238 241 243 244 246 245 245 246 247 247 248 249 248 249 251 252 254 253 252 252 252 253 254 256 258 261 263 265 267 269 271 272 273 274 274 276
240 240 243 245 243 243 242 242 242 243 246 251 251 247 249 248 247 247 253 254 254 253 253 255 256 256 253 252 252 252 255 259 262 264 266 268 270 273 274 275 275 275 277
243 239 238 240 242 242 243 244 245 246 247 249 252 251 252 252 251 250 251 253 253 252 251 252 254 256 257 257 258 258 260 261 262 263 266 268 269 271 273 274 275 276 277
245 242 238 237 239 242 241 242 244 245 244 247 251 253 254 254 253 254 249 253 256 256 255 253 254 254 256 258 260 262 264 264 264 265 266 267 270 273 275 276 278 280 280
248 245 243 237 235 237 240 243 244 246 249 250 252 254 256 257 257 259 255 255 258 259 259 259 258 258 258 258 259 260 262 265 267 268 269 270 272 275 277 280 281 282 281
247 246 248 250 243 238 236 238 241 244 246 248 250 252 255 257 260 262 261 252 256 256 257 259 261 261 261 260 260 261 261 262 264 267 269 269 271 274 279 281 282 283 283
260 255 251 248 248 247 242 239 238 241 245 248 251 251 252 256 254 261 265 266 265 260 262 260 260 260 261 261 261 262 263 264 265 266 267 267 268 270 276 279 281 281 282
Height
3122 3121 3121 3120 3121 3121 3121 3122 3122 3123 3123 3122 3124 3125 3126 3127 3129 3131 3133 3133 3134 3135 3136 3137 3138 3138 3138 3139 3140 3141 3141 3142 3143 3144 3144 3145 3145 3146 3146 3147 3147 3148 3149
3120 3120 3119 3118 3118 3118 3119 3119 3120 3120 3121 3119 3121 3122 3123 3124 3125 3129 3132 3133 3134 3135 3136 3137 3137 3138 3138 3139 3141 3141 3142 3143 3143 3144 3145 3146 3146 3147 3147 3148 3149 3150 3150
3118 3117 3117 3115 3116 3115 3116 3116 3117 3116 3116 3117 3118 3119 3121 3119 3121 3128 3131 3132 3133 3134 3135 3136 3136 3137 3138 3139 3141 3141 3143 3143 3144 3145 3146 3147 3147 3148 3149 3149 3150 3151 3152
3115 3114 3112 3111 3112 3111 3112 3111 3114 3114 3110 3112 3114 3115 3116 3117 3122 3127 3128 3130 3132 3133 3134 3135 3136 3136 3138 3139 3140 3141 3142 3143 3144 3144 3145 3146 3146 3147 3148 3149 3149 3150 3151
3111 3110 3107 3106 3106 3107 3106 3108 3109 3112 3101 3102 3112 3113 3115 3118 3124 3124 3127 3129 3130 3131 3132 3134 3135 3136 3137 3139 3140 3140 3141 3142 3144 3144 3145 3146 3147 3147 3148 3148 3149 3150 3151
3108 3107 3105 3103 3103 3103 3100 3098 3104 3107 3106 3106 3110 3113 3116 3120 3122 3124 3126 3127 3128 3130 3131 3133 3133 3134 3136 3137 3139 3140 3141 3142 3143 3144 3144 3145 3146 3146 3147 3148 3149 3149 3150
3106 3105 3103 3102 3101 3103 3101 3104 3094 3099 3105 3106 3109 3113 3116 3118 3120 3122 3125 3126 3127 3129 3130 3132 3133 3134 3136 3137 3138 3139 3140 3141 3142 3142 3143 3144 3145 3145 3146 3147 3147 3148 3148
3104 3103 3101 3100 3100 3100 3101 3101 3100 3101 3102 3106 3109 3113 3116 3117 3118 3122 3124 3125 3126 3128 3130 3131 3132 3134 3135 3136 3137 3138 3139 3140 3141 3141 3141 3142 3143 3144 3144 3145 3145 3145 3146
3101 3101 3100 3101 3100 3099 3100 3102 3103 3100 3104 3106 3110 3115 3114 3117 3120 3122 3122 3124 3126 3128 3129 3130 3132 3133 3134 3135 3136 3137 3138 3138 3139 3139 3139 3140 3141 3142 3143 3143 3144 3144 3145
3099 3100 3099 3099 3099 3099 3098 3101 3103 3105 3105 3105 3112 3115 3114 3116 3118 3121 3122 3124 3125 3127 3127 3129 3130 3131 3132 3132 3133 3135 3136 3136 3136 3137 3138 3138 3138 3139 3140 3141 3142 3143 3143
3097 3097 3098 3098 3097 3099 3100 3103 3104 3106 3108 3111 3112 3114 3115 3116 3117 3120 3121 3123 3124 3124 3126 3127 3128 3128 3129 3131 3132 3132 3133 3134 3134 3134 3135 3135 3136 3136 3136 3137 3138 3139 3140
3095 3095 3096 3096 3097 3098 3098 3100 3103 3106 3109 3110 3111 3112 3113 3115 3116 3118 3119 3121 3121 3123 3124 3125 3125 3125 3127 3128 3129 3130 3131 3131 3131 3131 3132 3132 3133 3133 3133 3134 3135 3135 3135
3090 3091 3093 3094 3095 3097 3098 3100 3102 3104 3107 3107 3109 3111 3112 3113 3114 3115 3117 3118 3119 3120 3121 3122 3122 3123 3124 3126 3127 3127 3128 3129 3128 3128 3128 3129 3129 3131 3131 3131 3132 3132 3131
3086 3088 3089 3091 3093 3094 3097 3099 3101 3101 3103 3105 3107 3108 3108 3110 3112 3113 3114 3115 3116 3117 3118 3119 3119 3120 3121 3122 3124 3124 3125 3125 3125 3125 3125 3125 3126 3126 3127 3128 3127 3127 3128
3082 3083 3084 3085 3087 3089 3091 3094 3096 3098 3100 3101 3103 3104 3106 3107 3108 3110 3110 3112 3113 3114 3114 3115 3115 3116 3118 3119 3119 3120 3121 3121 3121 3121 3121 3121 3121 3121 3121 3122 3123 3122 3122
3075 3078 3080 3082 3083 3085 3086 3088 3090 3093 3096 3098 3099 3101 3102 3103 3105 3106 3107 3107 3108 3109 3109 3110 3111 3113 3114 3115 3115 3116 3116 3117 3117 3117 3117 3117 3117 3117 3117 3117 3117 3117 3117
3068 3069 3072 3075 3077 3079 3080 3083 3085 3087 3089 3092 3094 3096 3097 3098 3100 3101 3102 3102 3103 3104 3106 3106 3107 3108 3109 3110 3110 3111 3111 3112 3112 3113 3112 3112 3111 3111 3112 3111 3111 3112 3111
3063 3063 3063 3066 3070 3073 3075 3077 3080 3082 3083 3086 3088 3089 3091 3093 3095 3095 3096 3097 3098 3099 3100 3101 3102 3103 3104 3105 3105 3105 3106 3107 3108 3108 3107 3107 3106 3106 3106 3106 3106 3105 3105
3057 3058 3060 3061 3062 3065 3068 3070 3073 3075 3078 3080 3082 3084 3085 3087 3089 3090 3091 3092 3093 3093 3094 3095 3096 3097 3098 3099 3099 3100 3101 3102 3102 3102 3102 3101 3100 3100 3099 3100 3099 3099 3099
3051 3052 3054 3056 3057 3058 3059 3062 3064 3067 3069 3072 3074 3076 3079 3081 3082 3083 3084 3085 3086 3087 3088 3089 3090 3091 3092 3093 3093 3094 3095 3095 3097 3097 3096 3095 3094 3093 3092 3093 3092 3092 3092
3042 3044 3045 3048 3050 3052 3055 3056 3058 3060 3063 3064 3066 3069 3072 3074 3076 3077 3079 3079 3080 3081 3082 3083 3084 3086 3087 3087 3088 3087 3088 3089 3090 3091 3091 3089 3087 3087 3086 3086 3085 3084 3084
3032 3034 3036 3038 3040 3043 3046 3049 3051 3053 3055 3058 3060 3062 3064 3065 3067 3070 3072 3073 3074 3075 3076 3076 3077 3078 3079 3080 3082 3081 3081 3082 3082 3084 3084 3083 3081 3080 3079 3079 3078 3077 3077
3023 3024 3025 3027 3030 3033 3036 3037 3041 3044 3046 3048 3051 3054 3055 3057 3059 3062 3064 3065 3067 3068 3068 3070 3071 3071 3072 3072 3075 3074 3074 3074 3076 3077 3078 3077 3075 3074 3072 3071 3070 3069 3068
3014 3015 3016 3017 3019 3021 3025 3028 3033 3036 3039 3043 3045 3046 3047 3049 3051 3053 3055 3057 3058 3060 3061 3062 3063 3063 3065 3066 3066 3066 3066 3068 3068 3070 3070 3069 3068 3066 3063 3062 3061 3060 3059
3006 3007 3009 3011 3012 3012 3015 3018 3022 3025 3029 3032 3035 3037 3039 3041 3044 3046 3048 3050 3051 3052 3054 3055 3057 3058 3058 3058 3058 3059 3059 3059 3060 3061 3061 3061 3060 3059 3056 3054 3052 3050 3049
3001 3001 3001 3002 3004 3005 3007 3008 3011 3015 3020 3024 3026 3029 3031 3034 3037 3039 3040 3041 3043 3045 3046 3048 3049 3050 3052 3052 3052 3051 3051 3052 3052 3052 3052 3051 3052 3051 3049 3045 3043 3041 3039